owner,sensor,date,latitude,longitude,vertical_datum,sea_water_temperature,qcFlag
Chevron,ioos:station:wmo:42876:1,2019-02-01T01:07:00Z,26.2083,-91.4436,10.5,21.9,11111222
Chevron,ioos:station:wmo:42876:1,2019-02-01T01:47:00Z,26.2083,-91.4436,10.6,21.9,11111222
Chevron,ioos:station:wmo:42876:1,2019-02-01T01:57:00Z,26.2083,-91.4436,10.5,21.9,11111222
Chevron,ioos:station:wmo:42876:1,2019-02-01T02:07:00Z,26.2083,-91.4436,10.5,21.9,11111222
Chevron,ioos:station:wmo:42876:1,2019-02-01T02:17:00Z,26.2083,-91.4436,10.7,21.9,11111222
Chevron,ioos:station:wmo:42876:1,2019-02-01T02:27:00Z,26.2083,-91.4436,10.5,21.9,11111222
Chevron,ioos:station:wmo:42876:1,2019-02-01T02:37:00Z,26.2083,-91.4436,10.3,21.9,11111222
Chevron,ioos:station:wmo:42876:1,2019-02-01T02:47:00Z,26.2083,-91.4436,10.5,21.9,11111222
Chevron,ioos:station:wmo:42876:1,2019-02-01T02:57:00Z,26.2083,-91.4436,10.8,21.9,11111222
Chevron,ioos:station:wmo:42876:1,2019-02-01T03:07:00Z,26.2083,-91.4436,10.4,21.9,11111222
Chevron,ioos:station:wmo:42876:1,2019-02-01T03:17:00Z,26.2083,-91.4436,10.2,21.9,11111222
Chevron,ioos:station:wmo:42876:1,2019-02-01T03:27:00Z,26.2083,-91.4436,10.4,21.9,11111222
Chevron,ioos:station:wmo:42876:1,2019-02-01T03:37:00Z,26.2083,-91.4436,10.4,21.9,11111222
Chevron,ioos:station:wmo:42876:1,2019-02-01T04:18:00Z,26.2083,-91.4436,10.3,21.9,11111222
Chevron,ioos:station:wmo:42876:1,2019-02-01T04:28:00Z,26.2083,-91.4437,10.0,21.9,11111222
Chevron,ioos:station:wmo:42876:1,2019-02-01T04:38:00Z,26.2083,-91.4437,10.3,21.9,11111222
Chevron,ioos:station:wmo:42876:1,2019-02-01T04:48:00Z,26.2083,-91.4437,10.4,21.9,11111222
Chevron,ioos:station:wmo:42876:1,2019-02-01T04:58:00Z,26.2083,-91.4437,10.3,21.9,11111222
Chevron,ioos:station:wmo:42876:1,2019-02-01T05:08:00Z,26.2083,-91.4437,10.6,21.9,11111222
Chevron,ioos:station:wmo:42876:1,2019-02-01T05:18:00Z,26.2083,-91.4436,10.1,21.8,11111222
Chevron,ioos:station:wmo:42876:1,2019-02-01T05:28:00Z,26.2083,-91.4437,10.2,21.9,11111222
Chevron,ioos:station:wmo:42876:1,2019-02-01T05:38:00Z,26.2083,-91.4436,10.3,21.9,11111222
Chevron,ioos:station:wmo:42876:1,2019-02-01T06:08:00Z,26.2084,-91.4436,10.6,21.9,11111222
Chevron,ioos:station:wmo:42876:1,2019-02-01T06:18:00Z,26.2083,-91.4436,10.7,21.9,11111222
Chevron,ioos:station:wmo:42876:1,2019-02-01T06:28:00Z,26.2083,-91.4436,10.3,21.9,11111222
Chevron,ioos:station:wmo:42876:1,2019-02-01T06:38:00Z,26.2083,-91.4436,10.5,21.9,11111222
Chevron,ioos:station:wmo:42876:1,2019-02-01T06:48:00Z,26.2083,-91.4436,10.6,21.9,11111222
Chevron,ioos:station:wmo:42876:1,2019-02-01T06:58:00Z,26.2083,-91.4436,10.4,22.0,11111222
Chevron,ioos:station:wmo:42876:1,2019-02-01T07:08:00Z,26.2083,-91.4436,10.3,22.1,11111222
Chevron,ioos:station:wmo:42876:1,2019-02-01T07:18:00Z,26.2083,-91.4436,10.5,22.1,11111222
Chevron,ioos:station:wmo:42876:1,2019-02-01T07:28:00Z,26.2083,-91.4436,10.4,22.2,11111222
Chevron,ioos:station:wmo:42876:1,2019-02-01T07:38:00Z,26.2083,-91.4436,10.3,22.2,11111222
Chevron,ioos:station:wmo:42876:1,2019-02-01T07:48:00Z,26.2083,-91.4437,10.5,22.2,11111222
Chevron,ioos:station:wmo:42876:1,2019-02-01T07:58:00Z,26.2083,-91.4437,10.4,22.2,11111222
Chevron,ioos:station:wmo:42876:1,2019-02-01T08:08:00Z,26.2083,-91.4437,10.4,22.3,11111222
Chevron,ioos:station:wmo:42876:1,2019-02-01T08:18:00Z,26.2083,-91.4437,10.5,22.3,11111222
Chevron,ioos:station:wmo:42876:1,2019-02-01T09:58:00Z,26.2083,-91.4436,10.2,22.5,11111222
Chevron,ioos:station:wmo:42876:1,2019-02-01T10:08:00Z,26.2083,-91.4437,10.3,22.5,11111222
Chevron,ioos:station:wmo:42876:1,2019-02-01T10:18:00Z,26.2083,-91.4436,10.4,22.5,11111222
Chevron,ioos:station:wmo:42876:1,2019-02-01T10:28:00Z,26.2083,-91.4436,10.5,22.5,11111222
Chevron,ioos:station:wmo:42876:1,2019-02-01T10:38:00Z,26.2083,-91.4436,10.2,22.5,11111222
Chevron,ioos:station:wmo:42876:1,2019-02-01T10:48:00Z,26.2083,-91.4437,10.6,22.6,11111222
Chevron,ioos:station:wmo:42876:1,2019-02-01T10:58:00Z,26.2083,-91.4436,10.3,22.5,11111222
Chevron,ioos:station:wmo:42876:1,2019-02-01T11:08:00Z,26.2083,-91.4437,10.5,22.6,11111222
Chevron,ioos:station:wmo:42876:1,2019-02-01T11:18:00Z,26.2083,-91.4437,10.3,22.6,11111222
Chevron,ioos:station:wmo:42876:1,2019-02-01T11:28:00Z,26.2083,-91.4436,10.4,22.6,11111222
Chevron,ioos:station:wmo:42876:1,2019-02-01T11:38:00Z,26.2083,-91.4436,10.3,22.6,11111222
Chevron,ioos:station:wmo:42876:1,2019-02-01T11:48:00Z,26.2083,-91.4436,10.5,22.6,11111222
Chevron,ioos:station:wmo:42876:1,2019-02-01T11:58:00Z,26.2083,-91.4437,10.1,22.6,11111222
Chevron,ioos:station:wmo:42876:1,2019-02-01T12:08:00Z,26.2083,-91.4436,10.4,22.6,11111222
Chevron,ioos:station:wmo:42876:1,2019-02-01T12:18:00Z,26.2083,-91.4436,10.5,22.6,11111222
Chevron,ioos:station:wmo:42876:1,2019-02-01T12:28:00Z,26.2083,-91.4436,10.5,22.7,11111222
Chevron,ioos:station:wmo:42876:1,2019-02-01T12:38:00Z,26.2083,-91.4437,10.5,22.7,11111222
Chevron,ioos:station:wmo:42876:1,2019-02-01T12:48:00Z,26.2083,-91.4437,10.4,22.7,11111222
Chevron,ioos:station:wmo:42876:1,2019-02-01T12:58:00Z,26.2083,-91.4436,10.4,22.7,11111222
Chevron,ioos:station:wmo:42876:1,2019-02-01T13:08:00Z,26.2083,-91.4436,10.5,22.7,11111222
Chevron,ioos:station:wmo:42876:1,2019-02-01T13:18:00Z,26.2083,-91.4437,10.7,22.7,11111222
Chevron,ioos:station:wmo:42876:1,2019-02-01T13:28:00Z,26.2083,-91.4436,10.6,22.7,11111222
Chevron,ioos:station:wmo:42876:1,2019-02-01T13:38:00Z,26.2083,-91.4436,10.5,22.8,11111222
Chevron,ioos:station:wmo:42876:1,2019-02-01T13:48:00Z,26.2083,-91.4436,10.6,22.8,11111222
Chevron,ioos:station:wmo:42876:1,2019-02-01T13:58:00Z,26.2083,-91.4436,10.8,22.8,11111222
Chevron,ioos:station:wmo:42876:1,2019-02-01T14:08:00Z,26.2083,-91.4436,10.5,22.8,11111222
Chevron,ioos:station:wmo:42876:1,2019-02-01T14:18:00Z,26.2083,-91.4436,10.5,22.8,11111222
Chevron,ioos:station:wmo:42876:1,2019-02-01T14:28:00Z,26.2083,-91.4436,10.8,22.8,11111222
Chevron,ioos:station:wmo:42876:1,2019-02-01T14:38:00Z,26.2083,-91.4436,10.4,22.8,11111222
Chevron,ioos:station:wmo:42876:1,2019-02-01T14:48:00Z,26.2083,-91.4436,10.5,22.8,11111222
Chevron,ioos:station:wmo:42876:1,2019-02-01T14:58:00Z,26.2083,-91.4436,10.7,22.8,11111222
Chevron,ioos:station:wmo:42876:1,2019-02-01T15:08:00Z,26.2083,-91.4436,10.7,22.8,11111222
Chevron,ioos:station:wmo:42876:1,2019-02-01T15:18:00Z,26.2083,-91.4436,10.6,22.9,11111222
Chevron,ioos:station:wmo:42876:1,2019-02-01T15:28:00Z,26.2083,-91.4437,10.7,22.8,11111222
Chevron,ioos:station:wmo:42876:1,2019-02-01T15:38:00Z,26.2083,-91.4436,10.4,22.9,11111222
Chevron,ioos:station:wmo:42876:1,2019-02-01T15:48:00Z,26.2083,-91.4436,10.5,22.9,11111222
Chevron,ioos:station:wmo:42876:1,2019-02-01T15:58:00Z,26.2083,-91.4436,10.5,22.9,11111222
Chevron,ioos:station:wmo:42876:1,2019-02-01T16:08:00Z,26.2083,-91.4436,10.5,22.9,11111222
Chevron,ioos:station:wmo:42876:1,2019-02-01T16:18:00Z,26.2083,-91.4436,10.7,22.9,11111222
Chevron,ioos:station:wmo:42876:1,2019-02-01T16:28:00Z,26.2083,-91.4436,10.6,22.9,11111222
Chevron,ioos:station:wmo:42876:1,2019-02-01T16:38:00Z,26.2083,-91.4436,10.6,22.9,11111222
Chevron,ioos:station:wmo:42876:1,2019-02-01T16:48:00Z,26.2083,-91.4436,10.6,22.9,11111222
Chevron,ioos:station:wmo:42876:1,2019-02-01T16:58:00Z,26.2083,-91.4436,10.8,22.9,11111222
Chevron,ioos:station:wmo:42876:1,2019-02-01T17:08:00Z,26.2083,-91.4436,10.6,22.9,11111222
Chevron,ioos:station:wmo:42876:1,2019-02-01T17:18:00Z,26.2083,-91.4436,10.4,22.9,11111222
Chevron,ioos:station:wmo:42876:1,2019-02-01T17:28:00Z,26.2083,-91.4436,10.5,22.9,11111222
Chevron,ioos:station:wmo:42876:1,2019-02-01T17:38:00Z,26.2083,-91.4436,10.5,22.9,11111222
Chevron,ioos:station:wmo:42876:1,2019-02-01T17:48:00Z,26.2083,-91.4436,10.6,22.9,11111222
Chevron,ioos:station:wmo:42876:1,2019-02-01T17:58:00Z,26.2083,-91.4436,10.7,22.9,11111222
Chevron,ioos:station:wmo:42876:1,2019-02-01T18:08:00Z,26.2083,-91.4436,10.4,22.9,11111222
Chevron,ioos:station:wmo:42876:1,2019-02-01T18:18:00Z,26.2083,-91.4436,10.7,22.9,11111222
Chevron,ioos:station:wmo:42876:1,2019-02-01T18:28:00Z,26.2083,-91.4436,10.6,22.9,11111222
Chevron,ioos:station:wmo:42876:1,2019-02-01T18:38:00Z,26.2083,-91.4436,10.7,22.9,11111222
Chevron,ioos:station:wmo:42876:1,2019-02-01T18:48:00Z,26.2083,-91.4436,10.6,22.9,11111222
Chevron,ioos:station:wmo:42876:1,2019-02-01T18:58:00Z,26.2083,-91.4436,10.8,22.9,11111222
Chevron,ioos:station:wmo:42876:1,2019-02-01T19:08:00Z,26.2083,-91.4436,10.4,22.9,11111222
Chevron,ioos:station:wmo:42876:1,2019-02-01T19:18:00Z,26.2083,-91.4436,10.8,22.9,11111222
Chevron,ioos:station:wmo:42876:1,2019-02-01T19:28:00Z,26.2083,-91.4436,10.5,22.9,11111222
Chevron,ioos:station:wmo:42876:1,2019-02-01T19:38:00Z,26.2083,-91.4436,10.7,22.9,11111222
Chevron,ioos:station:wmo:42876:1,2019-02-01T19:48:00Z,26.2083,-91.4436,10.7,22.9,11111222
Chevron,ioos:station:wmo:42876:1,2019-02-01T19:58:00Z,26.2083,-91.4436,10.7,22.9,11111222
Chevron,ioos:station:wmo:42876:1,2019-02-01T20:08:00Z,26.2083,-91.4436,10.5,22.8,11111222
Chevron,ioos:station:wmo:42876:1,2019-02-01T20:18:00Z,26.2083,-91.4436,10.7,22.8,11111222
Chevron,ioos:station:wmo:42876:1,2019-02-01T20:28:00Z,26.2083,-91.4436,10.8,22.8,11111222
Chevron,ioos:station:wmo:42876:1,2019-02-01T20:38:00Z,26.2083,-91.4436,10.7,22.8,11111222
Chevron,ioos:station:wmo:42876:1,2019-02-01T20:48:00Z,26.2083,-91.4436,10.5,22.8,11111222
Chevron,ioos:station:wmo:42876:1,2019-02-01T20:58:00Z,26.2083,-91.4436,10.7,22.8,11111222
Chevron,ioos:station:wmo:42876:1,2019-02-01T21:09:00Z,26.2083,-91.4436,10.5,22.8,11111222
Chevron,ioos:station:wmo:42876:1,2019-02-01T21:19:00Z,26.2083,-91.4436,10.7,22.8,11111222
Chevron,ioos:station:wmo:42876:1,2019-02-01T21:29:00Z,26.2083,-91.4436,10.7,22.8,11111222
Chevron,ioos:station:wmo:42876:1,2019-02-01T21:39:00Z,26.2083,-91.4436,10.8,22.8,11111222
Chevron,ioos:station:wmo:42876:1,2019-02-01T21:49:00Z,26.2083,-91.4436,10.4,22.8,11111222
Chevron,ioos:station:wmo:42876:1,2019-02-01T21:59:00Z,26.2083,-91.4436,10.6,22.8,11111222
Chevron,ioos:station:wmo:42876:1,2019-02-01T22:09:00Z,26.2083,-91.4436,10.3,22.7,11111222
Chevron,ioos:station:wmo:42876:1,2019-02-01T22:19:00Z,26.2083,-91.4436,10.5,22.7,11111222
Chevron,ioos:station:wmo:42876:1,2019-02-01T22:29:00Z,26.2083,-91.4436,10.9,22.7,11111222
Chevron,ioos:station:wmo:42876:1,2019-02-01T22:39:00Z,26.2083,-91.4436,10.6,22.7,11111222
Chevron,ioos:station:wmo:42876:1,2019-02-01T22:49:00Z,26.2083,-91.4436,10.5,22.7,11111222
Chevron,ioos:station:wmo:42876:1,2019-02-01T22:59:00Z,26.2083,-91.4436,10.5,22.7,11111222
Chevron,ioos:station:wmo:42876:1,2019-02-01T23:09:00Z,26.2083,-91.4436,10.4,22.7,11111222
Chevron,ioos:station:wmo:42876:1,2019-02-01T23:19:00Z,26.2083,-91.4436,10.7,22.7,11111222
Chevron,ioos:station:wmo:42876:1,2019-02-01T23:29:00Z,26.2083,-91.4436,10.5,22.7,11111222
Chevron,ioos:station:wmo:42876:1,2019-02-01T23:39:00Z,26.2083,-91.4436,10.4,22.8,11111222
Chevron,ioos:station:wmo:42876:1,2019-02-01T23:49:00Z,26.2083,-91.4436,10.5,22.8,11111222
Chevron,ioos:station:wmo:42876:1,2019-02-01T23:59:00Z,26.2083,-91.4436,10.6,22.8,11111222
Chevron,ioos:station:wmo:42876:1,2019-02-02T00:09:00Z,26.2083,-91.4436,10.3,22.8,11111222
Chevron,ioos:station:wmo:42876:1,2019-02-02T00:19:00Z,26.2083,-91.4436,10.5,22.8,11111222
Chevron,ioos:station:wmo:42876:1,2019-02-02T00:29:00Z,26.2083,-91.4436,10.6,22.8,11111222
Chevron,ioos:station:wmo:42876:1,2019-02-02T00:39:00Z,26.2083,-91.4436,10.5,22.8,11111222
Chevron,ioos:station:wmo:42876:1,2019-02-02T00:49:00Z,26.2083,-91.4436,10.2,22.8,11111222
Chevron,ioos:station:wmo:42876:1,2019-02-02T00:59:00Z,26.2083,-91.4436,10.5,22.8,11111222
Chevron,ioos:station:wmo:42876:1,2019-02-02T01:09:00Z,26.2083,-91.4436,10.4,22.7,11111222
Chevron,ioos:station:wmo:42876:1,2019-02-02T01:19:00Z,26.2083,-91.4436,10.6,22.8,11111222
Chevron,ioos:station:wmo:42876:1,2019-02-02T01:29:00Z,26.2083,-91.4436,10.4,22.8,11111222
Chevron,ioos:station:wmo:42876:1,2019-02-02T01:39:00Z,26.2083,-91.4436,10.5,22.8,11111222
Chevron,ioos:station:wmo:42876:1,2019-02-02T01:49:00Z,26.2083,-91.4436,10.6,22.8,11111222
Chevron,ioos:station:wmo:42876:1,2019-02-02T01:59:00Z,26.2083,-91.4436,10.5,22.8,11111222
Chevron,ioos:station:wmo:42876:1,2019-02-02T02:09:00Z,26.2083,-91.4436,10.4,22.8,11111222
Chevron,ioos:station:wmo:42876:1,2019-02-02T02:19:00Z,26.2083,-91.4436,10.6,22.8,11111222
Chevron,ioos:station:wmo:42876:1,2019-02-02T02:29:00Z,26.2083,-91.4436,10.5,22.8,11111222
Chevron,ioos:station:wmo:42876:1,2019-02-02T02:39:00Z,26.2083,-91.4436,10.6,22.8,11111222
Chevron,ioos:station:wmo:42876:1,2019-02-02T02:49:00Z,26.2083,-91.4436,10.5,22.8,11111222
Chevron,ioos:station:wmo:42876:1,2019-02-02T02:59:00Z,26.2083,-91.4436,10.5,22.8,11111222
Chevron,ioos:station:wmo:42876:1,2019-02-02T03:09:00Z,26.2083,-91.4436,10.6,22.8,11111222
Chevron,ioos:station:wmo:42876:1,2019-02-02T03:19:00Z,26.2083,-91.4436,10.7,22.8,11111222
Chevron,ioos:station:wmo:42876:1,2019-02-02T03:29:00Z,26.2083,-91.4436,10.4,22.8,11111222
Chevron,ioos:station:wmo:42876:1,2019-02-02T03:39:00Z,26.2083,-91.4436,10.5,22.8,11111222
Chevron,ioos:station:wmo:42876:1,2019-02-02T03:49:00Z,26.2083,-91.4436,10.5,22.8,11111222
Chevron,ioos:station:wmo:42876:1,2019-02-02T03:59:00Z,26.2083,-91.4436,10.6,22.8,11111222
Chevron,ioos:station:wmo:42876:1,2019-02-02T04:09:00Z,26.2083,-91.4436,10.6,22.8,11111222
Chevron,ioos:station:wmo:42876:1,2019-02-02T04:19:00Z,26.2083,-91.4436,10.5,22.8,11111222
Chevron,ioos:station:wmo:42876:1,2019-02-02T04:29:00Z,26.2083,-91.4436,10.4,22.8,11111222
Chevron,ioos:station:wmo:42876:1,2019-02-02T04:39:00Z,26.2083,-91.4436,10.4,22.8,11111222
Chevron,ioos:station:wmo:42876:1,2019-02-02T04:49:00Z,26.2083,-91.4436,10.6,22.8,11111222
Chevron,ioos:station:wmo:42876:1,2019-02-02T04:59:00Z,26.2083,-91.4436,10.3,22.8,11111222
Chevron,ioos:station:wmo:42876:1,2019-02-02T05:09:00Z,26.2083,-91.4436,10.4,22.8,11111222
Chevron,ioos:station:wmo:42876:1,2019-02-02T05:19:00Z,26.2083,-91.4436,10.4,22.8,11111222
Chevron,ioos:station:wmo:42876:1,2019-02-02T05:29:00Z,26.2083,-91.4436,10.1,22.8,11111222
Chevron,ioos:station:wmo:42876:1,2019-02-02T05:39:00Z,26.2083,-91.4436,10.4,22.8,11111222
Chevron,ioos:station:wmo:42876:1,2019-02-02T05:49:00Z,26.2083,-91.4436,10.2,22.8,11111222
Chevron,ioos:station:wmo:42876:1,2019-02-02T05:59:00Z,26.2083,-91.4436,10.3,22.8,11111222
Chevron,ioos:station:wmo:42876:1,2019-02-02T06:09:00Z,26.2083,-91.4436,10.5,22.8,11111222
Chevron,ioos:station:wmo:42876:1,2019-02-02T06:19:00Z,26.2083,-91.4436,10.1,22.8,11111222
Chevron,ioos:station:wmo:42876:1,2019-02-02T06:29:00Z,26.2083,-91.4436,10.4,22.8,11111222
Chevron,ioos:station:wmo:42876:1,2019-02-02T06:39:00Z,26.2083,-91.4436,10.2,22.8,11111222
Chevron,ioos:station:wmo:42876:1,2019-02-02T06:49:00Z,26.2083,-91.4436,10.5,22.8,11111222
Chevron,ioos:station:wmo:42876:1,2019-02-02T06:59:00Z,26.2083,-91.4436,10.5,22.8,11111222
Chevron,ioos:station:wmo:42876:1,2019-02-02T07:09:00Z,26.2083,-91.4436,10.5,22.8,11111222
Chevron,ioos:station:wmo:42876:1,2019-02-02T07:19:00Z,26.2083,-91.4436,10.2,22.8,11111222
Chevron,ioos:station:wmo:42876:1,2019-02-02T07:29:00Z,26.2083,-91.4436,10.2,22.8,11111222
Chevron,ioos:station:wmo:42876:1,2019-02-02T07:39:00Z,26.2083,-91.4436,10.4,22.8,11111222
Chevron,ioos:station:wmo:42876:1,2019-02-02T07:49:00Z,26.2083,-91.4436,10.4,22.8,11111222
Chevron,ioos:station:wmo:42876:1,2019-02-02T07:59:00Z,26.2083,-91.4436,10.3,22.8,11111222
Chevron,ioos:station:wmo:42876:1,2019-02-02T08:09:00Z,26.2083,-91.4436,10.3,22.8,11111222
Chevron,ioos:station:wmo:42876:1,2019-02-02T08:19:00Z,26.2083,-91.4436,10.4,22.8,11111222
Chevron,ioos:station:wmo:42876:1,2019-02-02T08:29:00Z,26.2083,-91.4436,10.3,22.8,11111222
Chevron,ioos:station:wmo:42876:1,2019-02-02T08:39:00Z,26.2083,-91.4436,10.4,22.8,11111222
Chevron,ioos:station:wmo:42876:1,2019-02-02T08:49:00Z,26.2083,-91.4436,10.5,22.8,11111222
Chevron,ioos:station:wmo:42876:1,2019-02-02T08:59:00Z,26.2083,-91.4436,10.4,22.8,11111222
Chevron,ioos:station:wmo:42876:1,2019-02-02T09:09:00Z,26.2083,-91.4436,10.5,22.8,11111222
Chevron,ioos:station:wmo:42876:1,2019-02-02T09:19:00Z,26.2083,-91.4436,10.6,22.8,11111222
Chevron,ioos:station:wmo:42876:1,2019-02-02T09:29:00Z,26.2083,-91.4436,10.4,22.8,11111222
Chevron,ioos:station:wmo:42876:1,2019-02-02T09:39:00Z,26.2083,-91.4436,10.5,22.8,11111222
Chevron,ioos:station:wmo:42876:1,2019-02-02T09:49:00Z,26.2083,-91.4436,10.5,22.8,11111222
Chevron,ioos:station:wmo:42876:1,2019-02-02T09:59:00Z,26.2083,-91.4436,10.3,22.8,11111222
Chevron,ioos:station:wmo:42876:1,2019-02-02T10:09:00Z,26.2083,-91.4436,10.4,22.8,11111222
Chevron,ioos:station:wmo:42876:1,2019-02-02T10:19:00Z,26.2083,-91.4436,10.6,22.8,11111222
Chevron,ioos:station:wmo:42876:1,2019-02-02T10:29:00Z,26.2083,-91.4436,10.7,22.8,11111222
Chevron,ioos:station:wmo:42876:1,2019-02-02T10:39:00Z,26.2083,-91.4436,10.4,22.8,11111222
Chevron,ioos:station:wmo:42876:1,2019-02-02T10:49:00Z,26.2083,-91.4436,10.6,22.8,11111222
Chevron,ioos:station:wmo:42876:1,2019-02-02T10:59:00Z,26.2083,-91.4436,10.3,22.8,11111222
Chevron,ioos:station:wmo:42876:1,2019-02-02T11:09:00Z,26.2083,-91.4436,10.2,22.8,11111222
Chevron,ioos:station:wmo:42876:1,2019-02-02T11:19:00Z,26.2083,-91.4436,10.4,22.8,11111222
Chevron,ioos:station:wmo:42876:1,2019-02-02T11:29:00Z,26.2083,-91.4436,10.5,22.8,11111222
Chevron,ioos:station:wmo:42876:1,2019-02-02T11:39:00Z,26.2083,-91.4436,10.4,22.8,11111222
Chevron,ioos:station:wmo:42876:1,2019-02-02T11:49:00Z,26.2083,-91.4436,10.5,22.8,11111222
Chevron,ioos:station:wmo:42876:1,2019-02-02T11:59:00Z,26.2083,-91.4436,10.7,22.8,11111222
Chevron,ioos:station:wmo:42876:1,2019-02-02T12:09:00Z,26.2083,-91.4436,10.4,22.8,11111222
Chevron,ioos:station:wmo:42876:1,2019-02-02T12:19:00Z,26.2083,-91.4436,10.5,22.8,11111222
Chevron,ioos:station:wmo:42876:1,2019-02-02T12:29:00Z,26.2083,-91.4436,10.7,22.8,11111222
Chevron,ioos:station:wmo:42876:1,2019-02-02T12:39:00Z,26.2083,-91.4436,10.8,22.8,11111222
Chevron,ioos:station:wmo:42876:1,2019-02-02T12:49:00Z,26.2083,-91.4436,10.5,22.8,11111222
Chevron,ioos:station:wmo:42876:1,2019-02-02T12:59:00Z,26.2083,-91.4436,10.6,22.8,11111222
Chevron,ioos:station:wmo:42876:1,2019-02-02T13:09:00Z,26.2083,-91.4436,10.4,22.8,11111222
Chevron,ioos:station:wmo:42876:1,2019-02-02T13:19:00Z,26.2083,-91.4436,10.5,22.8,11111222
Chevron,ioos:station:wmo:42876:1,2019-02-02T13:29:00Z,26.2083,-91.4436,10.4,22.8,11111222
Chevron,ioos:station:wmo:42876:1,2019-02-02T13:39:00Z,26.2083,-91.4436,10.5,22.8,11111222
Chevron,ioos:station:wmo:42876:1,2019-02-02T13:49:00Z,26.2083,-91.4436,10.7,22.8,11111222
Chevron,ioos:station:wmo:42876:1,2019-02-02T14:09:00Z,26.2083,-91.4436,10.6,22.8,11111222
Chevron,ioos:station:wmo:42876:1,2019-02-02T14:19:00Z,26.2083,-91.4436,10.6,22.8,11111222
Chevron,ioos:station:wmo:42876:1,2019-02-02T14:29:00Z,26.2083,-91.4436,10.5,22.8,11111222
Chevron,ioos:station:wmo:42876:1,2019-02-02T14:40:00Z,26.2083,-91.4436,10.4,22.8,11111222
Chevron,ioos:station:wmo:42876:1,2019-02-02T14:50:00Z,26.2083,-91.4436,10.4,22.8,11111222
Chevron,ioos:station:wmo:42876:1,2019-02-02T15:00:00Z,26.2083,-91.4436,10.6,22.8,11111222
Chevron,ioos:station:wmo:42876:1,2019-02-02T15:10:00Z,26.2083,-91.4436,10.6,22.8,11111222
Chevron,ioos:station:wmo:42876:1,2019-02-02T15:20:00Z,26.2083,-91.4436,10.5,22.8,11111222
Chevron,ioos:station:wmo:42876:1,2019-02-02T15:30:00Z,26.2083,-91.4436,10.6,22.8,11111222
Chevron,ioos:station:wmo:42876:1,2019-02-02T15:40:00Z,26.2083,-91.4436,10.5,22.8,11111222
Chevron,ioos:station:wmo:42876:1,2019-02-02T15:50:00Z,26.2083,-91.4436,10.5,22.8,11111222
Chevron,ioos:station:wmo:42876:1,2019-02-02T16:00:00Z,26.2083,-91.4436,10.3,22.8,11111222
Chevron,ioos:station:wmo:42876:1,2019-02-02T16:10:00Z,26.2083,-91.4436,10.4,22.8,11111222
Chevron,ioos:station:wmo:42876:1,2019-02-02T16:20:00Z,26.2083,-91.4436,10.6,22.8,11111222
Chevron,ioos:station:wmo:42876:1,2019-02-02T16:30:00Z,26.2083,-91.4436,10.3,22.8,11111222
Chevron,ioos:station:wmo:42876:1,2019-02-02T16:40:00Z,26.2083,-91.4436,10.6,22.8,11111222
Chevron,ioos:station:wmo:42876:1,2019-02-02T16:50:00Z,26.2083,-91.4436,10.7,22.9,11111222
Chevron,ioos:station:wmo:42876:1,2019-02-02T17:00:00Z,26.2083,-91.4436,10.6,22.9,11111222
Chevron,ioos:station:wmo:42876:1,2019-02-02T17:10:00Z,26.2083,-91.4436,10.4,22.9,11111222
Chevron,ioos:station:wmo:42876:1,2019-02-02T17:20:00Z,26.2083,-91.4436,10.5,22.9,11111222
Chevron,ioos:station:wmo:42876:1,2019-02-02T17:30:00Z,26.2083,-91.4436,10.3,22.9,11111222
Chevron,ioos:station:wmo:42876:1,2019-02-02T17:40:00Z,26.2083,-91.4436,10.2,22.9,11111222
Chevron,ioos:station:wmo:42876:1,2019-02-02T17:50:00Z,26.2083,-91.4436,10.5,22.9,11111222
Chevron,ioos:station:wmo:42876:1,2019-02-02T18:00:00Z,26.2083,-91.4436,10.1,22.9,11111222
Chevron,ioos:station:wmo:42876:1,2019-02-02T18:10:00Z,26.2083,-91.4436,10.2,22.9,11111222
Chevron,ioos:station:wmo:42876:1,2019-02-02T18:20:00Z,26.2083,-91.4436,10.4,22.9,11111222
Chevron,ioos:station:wmo:42876:1,2019-02-02T18:30:00Z,26.2083,-91.4436,10.2,22.9,11111222
Chevron,ioos:station:wmo:42876:1,2019-02-02T18:40:00Z,26.2083,-91.4436,10.6,22.9,11111222
Chevron,ioos:station:wmo:42876:1,2019-02-02T18:50:00Z,26.2083,-91.4436,10.4,22.9,11111222
Chevron,ioos:station:wmo:42876:1,2019-02-02T19:00:00Z,26.2083,-91.4436,10.4,22.9,11111222
Chevron,ioos:station:wmo:42876:1,2019-02-02T19:10:00Z,26.2083,-91.4436,10.8,22.9,11111222
Chevron,ioos:station:wmo:42876:1,2019-02-02T19:20:00Z,26.2083,-91.4436,10.4,22.9,11111222
Chevron,ioos:station:wmo:42876:1,2019-02-02T19:30:00Z,26.2083,-91.4436,10.3,22.9,11111222
Chevron,ioos:station:wmo:42876:1,2019-02-02T19:40:00Z,26.2083,-91.4436,10.4,22.9,11111222
Chevron,ioos:station:wmo:42876:1,2019-02-02T19:50:00Z,26.2083,-91.4436,10.4,22.9,11111222
Chevron,ioos:station:wmo:42876:1,2019-02-02T20:00:00Z,26.2083,-91.4436,10.6,22.9,11111222
Chevron,ioos:station:wmo:42876:1,2019-02-02T20:10:00Z,26.2083,-91.4436,10.6,22.9,11111222
Chevron,ioos:station:wmo:42876:1,2019-02-02T20:20:00Z,26.2083,-91.4436,10.7,22.9,11111222
Chevron,ioos:station:wmo:42876:1,2019-02-02T20:30:00Z,26.2083,-91.4436,10.4,22.9,11111222
Chevron,ioos:station:wmo:42876:1,2019-02-02T20:40:00Z,26.2083,-91.4436,10.4,22.9,11111222
Chevron,ioos:station:wmo:42876:1,2019-02-02T20:50:00Z,26.2083,-91.4436,10.5,22.9,11111222
Chevron,ioos:station:wmo:42876:1,2019-02-02T21:00:00Z,26.2083,-91.4436,10.7,22.9,11111222
Chevron,ioos:station:wmo:42876:1,2019-02-02T21:10:00Z,26.2083,-91.4436,10.6,22.9,11111222
Chevron,ioos:station:wmo:42876:1,2019-02-02T21:20:00Z,26.2083,-91.4436,10.6,22.9,11111222
Chevron,ioos:station:wmo:42876:1,2019-02-02T21:30:00Z,26.2083,-91.4436,10.5,22.9,11111222
Chevron,ioos:station:wmo:42876:1,2019-02-02T21:40:00Z,26.2083,-91.4436,10.7,22.9,11111222
Chevron,ioos:station:wmo:42876:1,2019-02-02T21:50:00Z,26.2083,-91.4436,10.6,22.9,11111222
Chevron,ioos:station:wmo:42876:1,2019-02-02T22:00:00Z,26.2083,-91.4436,10.5,22.9,11111222
Chevron,ioos:station:wmo:42876:1,2019-02-02T22:10:00Z,26.2083,-91.4436,10.7,22.9,11111222
Chevron,ioos:station:wmo:42876:1,2019-02-02T22:20:00Z,26.2083,-91.4436,10.6,22.9,11111222
Chevron,ioos:station:wmo:42876:1,2019-02-02T22:30:00Z,26.2083,-91.4436,10.5,22.9,11111222
Chevron,ioos:station:wmo:42876:1,2019-02-02T22:40:00Z,26.2083,-91.4436,10.6,22.9,11111222
Chevron,ioos:station:wmo:42876:1,2019-02-02T22:50:00Z,26.2083,-91.4436,10.5,22.9,11111222
Chevron,ioos:station:wmo:42876:1,2019-02-02T23:00:00Z,26.2083,-91.4436,10.6,22.9,11111222
Chevron,ioos:station:wmo:42876:1,2019-02-02T23:10:00Z,26.2083,-91.4436,10.5,22.9,11111222
Chevron,ioos:station:wmo:42876:1,2019-02-02T23:20:00Z,26.2083,-91.4436,10.3,22.9,11111222
Chevron,ioos:station:wmo:42876:1,2019-02-02T23:30:00Z,26.2083,-91.4436,10.4,22.9,11111222
Chevron,ioos:station:wmo:42876:1,2019-02-02T23:40:00Z,26.2083,-91.4436,10.6,22.9,11111222